Location: Gilevgi
(36.8751°N, 30.0581°E)
Time: 05:31:38
(UTC+00:00)

Cosmos 1900 - Pass Details

Date: 11 December 2025
Orbit: 680 x 735 km, 66.1° (Epoch: 13 January)

Event Time Altitude Azimuth Distance (km) Brightness Sun altitude
Rises 15:40:13 0° 334° (NNW) 3,133 7.7 -11.1°
Reaches altitude 10° 15:42:37 10° 337° (NNW) 2,201 6.9 -11.6°
Maximum altitude 15:47:37 67° 60° (ENE) 766 4.3 -12.5°
Drops below altitude 10° 15:52:29 10° 143° (SE) 2,151 6.6 -13.5°
Sets 15:54:49 0° 146° (SE) 3,056 7.5 -13.9°
